Location: Chillicothe
(39.7950°N, 93.5520°W)
Time: 17:16:46
(UTC-06:00)

BEESAT - Pass Details

Date: 21 November 2019
Orbit: 701 x 709 km, 98.6° (Epoch: 15 December)

Event Time Altitude Azimuth Distance (km) Brightness Sun altitude
Rises 05:45:15 0° 196° (SSW) 3,074 ? -15.3°
Reaches altitude 10° 05:47:51 10° 210° (SSW) 2,160 ? -14.8°
Maximum altitude 05:51:42 24° 265° (W) 1,421 ? -14.1°
Enters shadow 05:53:17 21° 294° (WNW) 1,576 ? -13.8°
